TIME,DELAY(SENSOR),PRES,OXYGEN,RAWTEMP,T(OPTODE),TCPHASE,FLUOR,BETA(BETA700),BETA(BETA412),BETA(BETA440),CDOM,C(CSC),ED(ED411.90),ED(ED443.80),ED(ED489.40),ED(ED554.70),LU(LU412.20),LU(LU443.80),LU(LU489.40),LU(LU555.00),COMP,TILTX,TILTY,CHECK
1362177301,5806,868.3800048828125000,187.8672943115234400,491.4410095214844000,7.7947859764099120,38.5221595764160160,65,262,97,78,80,11687,2146958866,2147516617,2147291465,2147510409,2147089161,2146928777,2147718912,2147123410,1249,-1,9,56444
1362180898,5803,947.5800170898438000,239.9356994628906200,548.5097045898438000,6.0162119865417480,36.5175895690918000,65,265,98,79,81,11682,2146962148,2147519195,2147298962,2147523712,2147090633,2146920246,2147723373,2147120722,293,-1,9,2752
1362184498,5806,981.0800170898438000,253.8690948486328000,560.1209106445312000,5.6513562202453610,36.0357818603515600,66,271,98,79,81,11685,2146962925,2147518473,2147300754,2147525723,2147086646,2146919561,2147731108,2147117238,648,-1,8,40233
1362188098,5809,983.5300292968750000,254.9295959472656200,558.8734130859375000,5.6906089782714840,35.9616012573242200,66,269,99,79,80,11683,2146963931,2147517156,2147300452,2147524754,2147087524,2146915840,2147730898,2147118838,2697,-1,9,34882
1362191698,5808,979.1799926757812000,257.8182983398437500,563.3975830078125000,5.5481948852539060,35.9063301086425800,64,268,98,80,81,11678,2146959798,2147517851,2147301979,2147525430,2147086491,2146916845,2147733257,2147117897,93,-1,8,11053
1362195298,5804,990.7800292968750000,260.2875976562500000,563.9995727539062000,5.5292320251464840,35.8008384704589840,64,267,97,79,81,11675,2146962002,2147521124,2147300288,2147525988,2147089014,2146920237,2147734180,2147119698,3573,-1,9,25639
1362198898,5806,989.5200195312500000,259.0794067382812500,564.3012695312500000,5.5197300910949710,35.8631286621093750,65,270,98,80,80,11675,2146962121,2147517577,2147300672,2147526043,2147088155,2146918436,2147734509,2147121453,294,-1,8,55258
1362202498,5807,991.5200195312500000,261.9743041992187500,566.3599853515625000,5.4548530578613280,35.7651214599609400,65,265,98,80,80,11675,2146963419,2147517028,2147300644,2147528877,2147090852,2146921325,2147729234,2147118299,109,-1,9,52849
1362206098,5806,1000.0399780273438000,260.7023925781250000,563.5261840820312000,5.5441441535949710,35.7726402282714840,65,268,98,80,80,11673,2146962304,2147521856,2147297929,2147525494,2147087478,2146917312,2147730715,2147120384,3275,-1,8,7221
1362209698,5805,997.8900146484375000,262.0581970214844000,565.2454223632812000,5.4899811744689940,35.7409706115722660,65,264,97,79,80,11670,2146960393,2147515830,2147297920,2147527186,2147087707,2146921462,2147732288,2147119168,3402,-1,9,16103
1362213298,5800,995.9799804687500000,259.2992858886719000,564.9921875000000000,5.4979610443115230,35.8655204772949200,64,268,100,80,80,11670,2146963364,2147518326,2147301403,2147525449,2147091145,2146924269,2147730029,2147124726,3544,-1,9,3077
1362216898,5807,998.8599853515625000,259.4602966308594000,564.1199951171875000,5.5254402160644530,35.8416786193847660,66,266,99,78,81,11670,2146959515,2147517952,2147301275,2147525467,2147087917,2146916562,2147727305,2147120960,69,-1,8,50914
1362220498,5805,1000.6300048828125000,259.6029052734375000,564.2988281250000000,5.5198059082031250,35.8387718200683600,65,266,99,79,80,11668,2146961618,2147516141,2147301824,2147528182,2147087835,2146920539,2147733705,2147121243,3459,-1,9,60227
1362224098,5804,1004.4500122070312000,258.3127136230469000,563.9108886718750000,5.5320239067077640,35.8925514221191400,63,265,98,79,81,11666,2146964416,2147519323,2147300352,2147525824,2147086893,2146916242,2147730294,2147122678,3383,-1,9,38870
1362227698,5805,1000.8599853515625000,258.5295104980469000,563.2780761718750000,5.5519599914550780,35.8703193664550800,65,268,100,80,81,11668,2146962176,2147514925,2147302098,2147524297,2147087250,2146913846,2147727872,2147119844,3009,-1,9,13970
1362231298,5801,1000.6599731445312000,256.6440124511719000,563.7144165039062000,5.5382180213928220,35.9682807922363300,65,265,98,82,80,11661,2146964370,2147518637,2147300406,2147526308,2147084160,2146918445,2147732608,2147120109,3474,-1,9,60162
1362234898,5809,1007.2700195312500000,258.3688049316406000,563.1052856445312000,5.5574002265930180,35.8753509521484400,64,269,99,79,80,11660,2146959826,2147517897,2147301604,2147526518,2147088045,2146918747,2147729243,2147117888,3582,-1,8,24497
1362238498,5808,1001.9199829101562000,256.9544982910156000,563.4326782226562000,5.5470890998840330,35.9482002258300800,65,267,99,79,80,11660,2146962349,2147518445,2147303341,2147525202,2147086948,2146917522,2147734592,2147120448,143,-1,8,40213
1362242098,5808,1010.2500000000000000,259.9544067382812500,563.2310180664062000,5.5534439086914060,35.8023490905761700,64,267,99,78,80,11655,2146963108,2147519670,2147301403,2147526646,2147089216,2146919122,2147733558,2147121197,557,-1,8,17779
1362245698,5806,1002.2000122070312000,259.0729980468750000,564.4982299804688000,5.5135250091552730,35.8670692443847660,64,266,99,80,81,11655,2146959506,2147516662,2147303003,2147524443,2147088457,2146921965,2147731099,2147120365,17,0,8,39740
1362249298,5807,1008.9500122070312000,260.9024963378906000,564.1395263671875000,5.5248260498046875,35.7743492126464840,64,268,98,78,80,11655,2146964306,2147518226,2147300233,2147524224,2147088905,2146916681,2147729545,2147120155,3180,-1,9,19029
1362252898,5805,1006.2500000000000000,259.3829040527344000,564.5618896484375000,5.5115180015563965,35.8539009094238300,65,268,97,79,80,11654,2146961627,2147516352,2147299474,2147526491,2147085933,2146916571,2147728036,2147119433,3167,-1,8,51673
1362256498,5806,1010.4099731445312000,260.7142944335937500,564.0748291015625000,5.5268650054931640,35.7825088500976560,64,266,98,79,80,11652,2146961142,2147515227,2147301540,2147523428,2147087625,2146918125,2147728530,2147121773,3063,-1,9,18310
1362260098,5806,1011.6900024414062000,260.2031860351562500,564.2224731445312000,5.5222110748291020,35.8092384338378900,64,267,99,80,81,11637,2146962496,2147518921,2147302866,2147524242,2147088320,2146920164,2147734226,2147119195,3193,-1,9,52993
1362263698,5804,1005.8200073242188000,258.8573913574219000,564.1873779296875000,5.5233149528503420,35.8719482421875000,64,266,98,79,81,11636,2146961334,2147516973,2147300068,2147525595,2147088356,2146926875,2147728576,2147120045,3367,-1,9,59061
1362267298,5805,1009.6199951171875000,260.2806091308594000,563.9353027343750000,5.5312581062316895,35.8001594543457000,64,268,97,80,81,11633,2146962038,2147516333,2147301275,2147525458,2147088777,2146915090,2147737417,2147121380,3346,-1,9,50357
1362270898,5804,1002.5999755859375000,259.4491882324219000,564.1810302734375000,5.5235199928283690,35.8440513610839840,64,267,98,79,81,11635,2146962624,2147516717,2147298550,2147523876,2147087817,2146920009,2147734811,2147121234,352,-1,8,38544
1362274498,5808,1000.9099731445312000,261.4725952148437500,567.1890869140625000,5.4287152290344240,35.8036994934082000,65,268,97,80,81,11626,2146960493,2147518034,2147302939,2147528393,2147091181,2146912859,2147729124,2147119186,103,-1,8,11268
1362278098,5806,1010.1300048828125000,264.2572937011719000,566.6766967773438000,5.4448699951171875,35.6651382446289060,65,271,98,79,80,11629,2146961106,2147518500,2147305481,2147525394,2147086637,2146917366,2147728384,2147119716,3524,-1,8,45523
1362281698,5805,1006.1900024414062000,263.9039001464844000,567.8098144531250000,5.4091467857360840,35.7020988464355500,64,305,98,80,80,11629,2146962532,2147514989,2147300297,2147525202,2147088246,2146915264,2147733092,2147120393,3484,-1,9,32195
1362285298,5809,1009.7100219726562000,263.3641967773437500,566.3251953125000000,5.4559497833251950,35.6998214721679700,65,271,99,79,81,11629,2146961572,2147515437,2147299428,2147522605,2147090084,2146922870,2147729206,2147119012,2690,-1,8,26931
1362288898,5805,1006.7000122070312000,263.7677001953125000,567.2728271484375000,5.4260787963867190,35.6982192993164060,64,268,98,79,81,11626,2146964333,2147516470,2147302674,2147529188,2147087533,2146916224,2147730998,2147121728,3516,-1,9,18474
1362292498,5805,1014.3900146484375000,263.0809936523437500,565.9940185546875000,5.4663910865783690,35.7067108154296900,64,269,104,79,80,11625,2146960457,2147516690,2147302482,2147525906,2147089636,2146920128,2147735049,2147120411,2805,-1,9,1842
1362296098,5805,1014.6799926757812000,260.2099914550781000,564.2478027343750000,5.5214138031005860,35.8089218139648440,64,269,97,78,80,11626,2146964150,2147514477,2147301513,2147522550,2147089526,2146916013,2147732388,2147121874,3519,-1,9,23058
1362299698,5805,1008.6199951171875000,262.1361083984375000,565.8751220703125000,5.4701390266418460,35.7486495971679700,65,270,98,79,80,11624,2146963840,2147519652,2147301686,2147527634,2147087012,2146915392,2147733248,2147120685,2771,-1,9,61831
1362303298,5807,1010.3900146484375000,262.0448913574219000,565.2628173828125000,5.4894309043884280,35.7416191101074200,64,271,98,79,81,11620,2146963081,2147513600,2147300178,2147529920,2147089773,2146917586,2147731236,2147121298,3287,-1,9,26563
1362306898,5806,1008.4699707031250000,261.6283874511719000,567.5986938476562000,5.4158020019531250,35.8038711547851560,65,269,99,80,81,11619,2146964260,2147515209,2147302820,2147526272,2147089014,2146916580,2147730925,2147120612,3262,-1,8,52694
1362310498,5809,1010.5599975585938000,262.7135925292969000,567.5239868164062000,5.4181561470031740,35.7522583007812500,65,269,99,79,80,11621,2146964333,2147518774,2147300114,2147527552,2147087305,2146914678,2147730944,2147125248,26,0,8,11074
1362314098,5806,1012.3800048828125000,261.6075134277344000,564.9470825195312000,5.4993801116943360,35.7567291259765600,65,271,97,80,81,11619,2146962057,2147515062,2147303296,2147524864,2147086564,2146913645,2147734107,2147123035,3377,-1,9,36567
1362317698,5806,1015.2500000000000000,262.2264099121094000,565.5908813476562000,5.4790940284729000,35.7392692565918000,65,271,97,79,81,11619,2146962422,2147516553,2147303469,2147528557,2147089691,2146914404,2147733229,2147119753,3177,-1,9,6232
1362321355,5805,1017.9299926757812000,259.6933898925781000,563.5375976562500000,5.5437850952148440,35.8205718994140600,65,272,98,79,80,11630,2146964717,2147516626,2147305782,2147528749,2147089536,2146911597,2147734610,2147121170,288,-1,8,64856
